sat.trackr.live / text

‹ back to catalog

LKW-3

NORAD 43146 · 2018-006A

PAYLOAD ACTIVE UNKNOWN

§ Identity

Operator
Country
PRC
Launch date
2018-01-13
Launch site
JSC
Launch vehicle
Mass (kg)
RCS (m²)

External: N2YO · Heavens-Above · Gunter

§ Orbital elements

Epoch: 2026-05-25T04:08:43.960992Z

Period
93.83 min
Inclination
97.6592°
Eccentricity
0.0003652
Mean motion
15.34723716 rev/d
Perigee alt
459.2 km
Apogee alt
464.2 km
Semi-major
6,839.9 km
B*
2.3403e-4
RAAN
304.8599°
Arg perigee
49.0974°
Mean anomaly
311.0584°
Rev number
46,518

§ Raw data

LKW-31 43146U 18006A   26145.17273103  .00007793  00000+0  23403-3 0  99952 43146  97.6592 304.8599 0003652  49.0974 311.0584 15.34723716465180

JSON: /api/v1/satellites/43146 · /tle

For live sub-satellite position, see the globe view (requires WebGL).

§ Visibility from observer

Set your observer location to see the next 7 days of passes ≥ 10°. The values pass through the URL so the page stays shareable.

No JS? Fill the form by hand. The geolocation button needs JavaScript.

§ Radio — SatNOGS DB

ModeDescriptionDownlinkUplink
FM S-band telemetry 2.219 GHz

1 transmitter · refreshed weekly from db.satnogs.org